Location: *
(24.1434°N, 56.8729°E)
Time: 21:09:01
(UTC+00:00)

Meteor 1-21 Rocket - Pass Details

Date: 09 April 2020
Orbit: 833 x 908 km, 81.2° (Epoch: 24 May)

Event Time Altitude Azimuth Distance (km) Brightness Sun altitude
Rises 15:34:14 0° 351° (N) 3,377 7.7 -14.7°
Reaches altitude 10° 15:36:38 10° 350° (N) 2,443 6.9 -15.2°
Maximum altitude 15:42:09 77° 265° (W) 862 4.3 -16.4°
Drops below altitude 10° 15:47:42 10° 180° (S) 2,461 6.4 -17.6°
Sets 15:50:08 0° 178° (S) 3,403 7.2 -18.2°
